SCOUT G-1 DEB, 18525

Orbit data source: Space-Track

SCOUT G-1 DEB, 18525 is space debris in LEO originally from a launch on Fri, 14 Nov 1986 UTC launched from the Air Force Western Test Range (AFWTR). Debris objects in space refer to the collection of defunct objects orbiting the Earth. Examples of debris include non-operational satellites, rocket bodies, and fragments generated from explosions, collisions, or faulty payload assembly.

Loading next visibility...
Identifier
18525, 1986-088D
Orbit
LEO
Country
Flag of USUS
Related business
Manufacturer
Unknown
Mission
Spacecraft
Bus & Motor
Unknown
Mass
2 kg wet, 2 kg dry
Launch date (UTC)
1986-11-14 (40 years ago)
Launch vehicle
Unknown
Launch site
Air Force Western Test Range (AFWTR)
Object type
Payload
Rocket body
Debris
Shape & HBR
Unknown shape, 0.1 m
Radar Cross Section
Medium (>0.1 m² and <1 m²)

Expand to show TLE details & history
Last TLE update: 2 days ago

TLE from 2 days ago
0 SCOUT G-1 DEB
1 18525U 86088D   26171.44843894  .00000205  00000-0  16759-3 0  9990
2 18525  89.9160 342.9173 0006891  78.1214 310.9727 13.86403350998718
Epoch: 2026-06-20T10:45Z
TLE epoch observation values (Epoch: 2026-06-20T10:45:45.124Z)
Latitude
29.07905°
Longitude
-87.13716°
Altitude
941.662 km
Speed
7.385 km/s
True Right ascension
22h 51m 51s
True Declination
28° 56' 13"
Sunlit
Object was in daylight at epoch
Visualization orbit readout
Latitude
Unknown
Longitude
Unknown
Altitude
Unknown
Speed
Unknown
Apparent Right ascension
Unknown
Apparent Declination
Unknown
Sunlit
N/A
Visualization observer readout
Local Sidereal Time
02:17:16
Azimuth
Unknown
Elevation
Unknown
Doppler factor
Unknown
Orbital elements
Apogee altitude
943.301 km
Perigee altitude
933.217 km
Semi-major axis
7,316.396 km
Eccentricity
0.00069
Inclination
89.916°
RAAN
342.9173°
Arg. of periapsis
78.1214°
True anomaly
310.91305°
Mean anomaly
310.9727°
Eccentric anomaly
310.94288°
Mean motion
3.46815 °/min
Orbital period
103.8 mins
BSTAR
0.00016759
Loading maneuver chart data...
Computing Atmospheric mass density...
Loading historical data...
Loading historical data...
Loading historical data...
Loading historical data...
Loading historical data...
Loading historical data...
Loading historical data...
Other satellites on launch #88 in the year 1986 (1986-11-14 UTC)

Documentation

Showing up to 5 results
|